Regional Weather Roundup
Issued by NWS

Home | Current Version | Previous Version | Text Only | Print | Product List | Glossary Off
Versions: 1 2 3 4 5 6 7 8 9 10 11 12 13 14 15 16 17 18 19 20 21 22 23 24 25 26 27 28 29 30 31 32 33 34 35 36 37 38 39 40 41 42 43 44 45 46 47 48 49 50

000
ASUS43 KLOT 111003
RWRIL

ILLINOIS REGIONAL WEATHER ROUNDUP
NATIONAL WEATHER SERVICE CHICAGO/ROMEOVILLE IL
400 AM CST THU FEB 11 2016

NOTE: "FAIR" INDICATES FEW OR NO CLOUDS BELOW 12,000 FEET WITH NO
SIGNIFICANT WEATHER AND/OR OBSTRUCTIONS TO VISIBILITY.

* THESE STATIONS ARE NOT UNDER NWS QUALITY CONTROL. THEY ALSO MAY NOT
  REPORT WEATHER SUCH AS PRECIPITATION OR FOG.

ILZ001-002-007-009-015-016-024-111100-
NORTHWEST ILLINOIS

CITY           SKY/WX    TMP DP  RH WIND       PRES   REMARKS
MOLINE         CLOUDY    11   2  67 CALM      30.26R
STERLING*      CLEAR     10   0  61 N6        30.22R WCI   1
$$

ILZ003-004-008-010-011-017-018-111100-
NORTH CENTRAL ILLINOIS

CITY           SKY/WX    TMP DP  RH WIND       PRES   REMARKS
ROCKFORD       CLEAR      8   0  69 N8        30.25R WCI  -4
FREEPORT*      PTCLDY     6  -1  71 N6        30.25R WCI  -4
DE KALB*       PTCLDY     8   1  75 N7        30.21R WCI  -4
$$

ILZ005-006-012>014-019>023-111100-
NORTHEAST ILLINOIS

CITY           SKY/WX    TMP DP  RH WIND       PRES   REMARKS
CHICAGO-OHARE  CLEAR      9  -2  61 N10       30.20R WCI  -5
CHICAGO-MIDWAY CLEAR     12  -1  56 NW10      30.21R WCI  -1
AURORA         CLEAR      8   2  76 N9        30.22R WCI  -5
LANSING*       CLEAR     11   0  62 NW5       30.20S WCI   3
WAUKEGAN       CLEAR      5  -3  69 NW6       30.20R WCI  -6
DUPAGE AIRPORT CLEAR      8  -2  63 N8        30.20S WCI  -4
WHEELING       CLEAR      8  -2  63 NW8       30.22R WCI  -4
NORTHERLY ISL    N/A     14   1  56 W6          N/A  WCI   5
$$

LMZ740>746-111100-
SOUTHERN LAKE MICHIGAN

STATION/POSITION SKY/WX   TEMP    WIND        PRES    VSBY  WAVE
                          AIR SEA DIR/SP/G                  HT/PER
                          (F)     (DEG/KT/KT) (MB)    (MI)  (FT/S)
HARRISON CRIB              15     320/ 17/ 19   N/A
BURNHAM HARBOR             13     270/  6/ 11   N/A
CALUMET HARBOR             12     290/  5/ 10 1021.8R
BURNS HARBOR               18     320/ 13/ 20 1022.0R
MICHIGAN CITY              18     290/ 18/ 21   N/A
$$

ILZ025>027-034>036-040-047-049-050-058-095>099-111100-
WEST-CENTRAL ILLINOIS

CITY           SKY/WX    TMP DP  RH WIND       PRES   REMARKS
QUINCY         CLOUDY    19  13  77 NE12      30.23R WCI   7
MACOMB*        CLOUDY    12   6  76 N8        30.27R WCI   0
$$

ILZ028>032-037-038-041>044-048-051>054-059>061-111100-
CENTRAL ILLINOIS

CITY           SKY/WX    TMP DP  RH WIND       PRES   REMARKS
BLOOMINGTON    CLEAR     11   5  76 N6        30.22R WCI   2
DECATUR        CLOUDY    15   6  67 N6        30.21R WCI   6
PEORIA         CLEAR     11   3  70 N3        30.25R
LINCOLN*       CLEAR     14   8  76 N5        30.23R WCI   6
SPRINGFIELD    CLOUDY    19   8  62 N8        30.23R WCI   9
TAYLORVILLE    NOT AVBL
$$

ILZ033-039-045-046-055>057-062-063-111100-
EAST-CENTRAL ILLINOIS

CITY           SKY/WX    TMP DP  RH WIND       PRES   REMARKS
CHAMPAIGN      CLOUDY    14   7  73 N6        30.20R WCI   5
MATTOON        CLOUDY    16   7  67 N7        30.19S WCI   6
$$

ILZ079-100>102-111100-
SOUTHWEST ILLINOIS

CITY           SKY/WX    TMP DP  RH WIND       PRES   REMARKS
ALTON          CLOUDY    21  17  83 N6        30.21R WCI  14
BELLEVILLE     CLOUDY    22  19  90 NE6       30.19R WCI  14
CAHOKIA*       CLOUDY    23  18  81 NE7       30.21R WCI  15
SPARTA*        CLOUDY    22  19  91 CALM      30.20R
$$

ILZ064>066-069>071-074>076-080>082-084>086-088>090-092>094-111100-
SOUTH-CENTRAL ILLINOIS

CITY           SKY/WX    TMP DP  RH WIND       PRES   REMARKS
CARBONDALE     CLOUDY    22  18  85 NE3       30.19R
MARION         CLOUDY    25  21  86 E3        30.19S
MT. VERNON     CLOUDY    21  16  79 NE7       30.19S WCI  13
CENTRALIA*     CLOUDY    22  19  90 NE5       30.20R WCI  15
SALEM*         CLOUDY    22  18  83 NE3       30.20R
$$

ILZ067-068-072-073-078-083-087-091-111100-
SOUTHEAST ILLINOIS

CITY           SKY/WX    TMP DP  RH WIND       PRES   REMARKS
LAWRENCEVILLE  CLOUDY    21  14  74 N7        30.22R WCI  12
HARRISBURG*    CLOUDY    23  20  89 CALM      30.21R
$$

ABBREVIATIONS USED IN REMARKS
   TC - TEMPERATURE IN CELSIUS
  WCI - WIND CHILL INDEX
   HX - HEAT INDEX
  VSB - VISIBILITY
$$




USA.gov is the U.S. government's official web portal to all federal, state and local government web resources and services.